FW1419 Weather Reports


Display with metric or nautical units.
time (UTC)temp
F
wind
direction
speed
MPH
gust
MPH
rain 1hr
in
rain 24hr
in
rain mn
in
humidity
%
barometer
mb
20181116052821 54 156 0.0 2.0 0.00 0.00 0.00 29 1016.5
20181116052327 54 159 0.0 2.0 0.00 0.00 0.00 29 1016.5
20181116051830 53 137 0.0 1.0 0.00 0.00 0.00 31 1016.5
20181116051320 53 137 0.0 0.0 0.00 0.00 0.00 32 1016.4
20181116050824 53 137 0.0 0.0 0.00 0.00 0.00 31 1016.4
20181116050329 54 137 0.0 0.0 0.00 0.00 0.00 31 1016.4
20181116045835 54 137 0.0 0.0 0.00 0.00 0.00 30 1016.6
20181116045320 53 149 0.0 0.0 0.00 0.00 0.00 30 1016.6
20181116044826 54 149 0.0 0.0 0.00 0.00 0.00 31 1016.6
20181116044332 54 149 0.0 0.0 0.00 0.00 0.00 32 1016.6
20181116043835 54 161 0.0 0.0 0.00 0.00 0.00 31 1016.6
20181116043322 54 161 0.0 2.0 0.00 0.00 0.00 31 1016.6
20181116042828 54 161 1.0 2.0 0.00 0.00 0.00 32 1016.6
20181116042332 53 153 0.0 2.0 0.00 0.00 0.00 32 1016.6
20181116041822 53 162 0.0 2.0 0.00 0.00 0.00 33 1016.6
20181116041326 53 136 0.0 0.0 0.00 0.00 0.00 34 1016.5
20181116040830 53 126 0.0 0.0 0.00 0.00 0.00 34 1016.5
20181116040337 54 126 0.0 0.0 0.00 0.00 0.00 33 1016.5
20181116035820 54 126 0.0 0.0 0.00 0.00 0.00 33 1016.5
20181116035323 54 126 0.0 0.0 0.00 0.00 0.00 33 1016.5
20181116034829 54 126 0.0 0.0 0.00 0.00 0.00 32 1016.5
20181116034336 55 126 0.0 0.0 0.00 0.00 0.00 32 1016.3
20181116033820 55 126 0.0 0.0 0.00 0.00 0.00 31 1016.3
20181116033325 55 126 0.0 0.0 0.00 0.00 0.00 31 1016.3
20181116032817 56 126 0.0 0.0 0.00 0.00 0.00 31 1016.3
20181116032325 56 126 0.0 0.0 0.00 0.00 0.00 30 1016.3
20181116031830 56 126 0.0 0.0 0.00 0.00 0.00 30 1016.3
20181116031334 57 126 0.0 0.0 0.00 0.00 0.00 30 1016.1
20181116030839 57 126 0.0 0.0 0.00 0.00 0.00 31 1016.1
20181116030323 57 126 0.0 0.0 0.00 0.00 0.00 30 1016.1
20181116025828 57 126 0.0 0.0 0.00 0.00 0.00 30 1016.5
20181116025335 58 126 0.0 0.0 0.00 0.00 0.00 29 1016.5
20181116024820 58 126 0.0 0.0 0.00 0.00 0.00 28 1016.5
20181116024325 59 126 0.0 0.0 0.00 0.00 0.00 27 1016.2
20181116023835 60 126 0.0 0.0 0.00 0.00 0.00 27 1016.2
20181116023321 60 126 0.0 0.0 0.00 0.00 0.00 26 1016.2
20181116022824 60 126 0.0 0.0 0.00 0.00 0.00 26 1016.2
20181116022328 61 126 0.0 0.0 0.00 0.00 0.00 26 1016.2
20181116021833 61 126 0.0 0.0 0.00 0.00 0.00 26 1016.2
20181116021317 62 126 0.0 0.0 0.00 0.00 0.00 25 1016.0
20181116020826 62 126 0.0 0.0 0.00 0.00 0.00 24 1016.0
20181116020329 63 126 0.0 0.0 0.00 0.00 0.00 23 1016.0
20181116015834 63 126 0.0 0.0 0.00 0.00 0.00 23 1015.7
20181116015339 64 126 0.0 0.0 0.00 0.00 0.00 23 1015.7
20181116014827 64 126 0.0 1.0 0.00 0.00 0.00 23 1015.7
20181116014330 64 134 0.0 1.0 0.00 0.00 0.00 23 1015.4
20181116013836 65 121 0.0 1.0 0.00 0.00 0.00 23 1015.4
20181116013320 65 121 0.0 1.0 0.00 0.00 0.00 22 1015.4
20181116012826 66 155 0.0 1.0 0.00 0.00 0.00 22 1015.1
20181116012329 67 155 0.0 2.0 0.00 0.00 0.00 21 1015.1
20181116011833 67 155 0.0 2.0 0.00 0.00 0.00 20 1015.1
20181116011339 67 140 0.0 1.0 0.00 0.00 0.00 20 1015.9
20181116010822 68 88 0.0 2.0 0.00 0.00 0.00 19 1015.9
20181116010327 68 88 0.0 4.0 0.00 0.00 0.00 20 1015.9
20181116005831 69 144 0.0 5.0 0.00 0.00 0.00 19 1015.7
20181116005338 70 223 2.0 5.0 0.00 0.00 0.00 18 1015.7
20181116004823 70 221 0.0 3.0 0.00 0.00 0.00 18 1015.7
20181116004326 70 227 1.0 3.0 0.00 0.00 0.00 18 1015.6
20181116003830 71 295 0.0 3.0 0.00 0.00 0.00 17 1015.6
20181116003336 71 295 0.0 4.0 0.00 0.00 0.00 17 1015.6
20181116002819 72 214 1.0 4.0 0.00 0.00 0.00 17 1015.3
20181116002327 72 175 1.0 4.0 0.00 0.00 0.00 16 1015.3
20181116001831 73 204 2.0 4.0 0.00 0.00 0.00 16 1015.3
20181116001336 73 125 2.0 5.0 0.00 0.00 0.00 15 1015.1
20181116000821 74 159 2.0 5.0 0.00 0.00 0.00 15 1015.1
20181116000330 74 190 3.0 5.0 0.00 0.00 0.00 15 1015.1
20181115235839 75 168 1.0 5.0 0.00 0.00 0.00 14 1014.9
20181115235325 76 174 2.0 4.0 0.00 0.00 0.00 14 1014.9
20181115234832 76 159 1.0 4.0 0.00 0.00 0.00 13 1014.9
20181115234338 77 155 1.0 3.0 0.00 0.00 0.00 12 1014.9
20181115233821 78 163 0.0 3.0 0.00 0.00 0.00 12 1014.9
20181115233326 78 156 1.0 4.0 0.00 0.00 0.00 12 1014.9
20181115232830 78 140 1.0 6.0 0.00 0.00 0.00 11 1014.9
20181115232335 78 216 1.0 6.0 0.00 0.00 0.00 11 1014.9
20181115231819 78 205 2.0 7.0 0.00 0.00 0.00 11 1014.9
20181115231330 78 170 3.0 7.0 0.00 0.00 0.00 11 1014.9
20181115230835 78 207 2.0 6.0 0.00 0.00 0.00 11 1014.9
20181115230339 78 191 2.0 6.0 0.00 0.00 0.00 10 1014.9
20181115225823 78 236 3.0 6.0 0.00 0.00 0.00 11 1014.8
20181115225328 78 213 4.0 6.0 0.00 0.00 0.00 11 1014.8
20181115224832 78 212 0.0 7.0 0.00 0.00 0.00 11 1014.8
20181115224339 78 205 2.0 7.0 0.00 0.00 0.00 11 1014.7
20181115223823 78 270 2.0 6.0 0.00 0.00 0.00 10 1014.7
20181115223330 79 229 4.0 6.0 0.00 0.00 0.00 10 1014.7
20181115222834 79 245 1.0 6.0 0.00 0.00 0.00 11 1014.8
20181115222323 78 179 1.0 7.0 0.00 0.00 0.00 10 1014.8
20181115221826 78 203 5.0 7.0 0.00 0.00 0.00 10 1014.8
20181115221331 78 115 1.0 4.0 0.00 0.00 0.00 10 1014.9
20181115220817 78 247 1.0 6.0 0.00 0.00 0.00 10 1014.9
20181115220324 78 243 2.0 11.0 0.00 0.00 0.00 10 1014.9
20181115215829 78 180 3.0 11.0 0.00 0.00 0.00 10 1015.1
20181115215333 79 219 1.0 4.0 0.00 0.00 0.00 11 1015.1
20181115214837 78 138 2.0 11.0 0.00 0.00 0.00 10 1015.1
20181115214322 78 221 1.0 11.0 0.00 0.00 0.00 10 1015.3
20181115213827 79 209 1.0 9.0 0.00 0.00 0.00 10 1015.3
20181115213332 79 230 3.0 9.0 0.00 0.00 0.00 10 1015.3
20181115212820 78 258 2.0 6.0 0.00 0.00 0.00 10 1015.5
20181115212328 78 215 4.0 9.0 0.00 0.00 0.00 10 1015.5
20181115211833 78 241 3.0 5.0 0.00 0.00 0.00 10 1015.5
20181115211338 78 121 1.0 6.0 0.00 0.00 0.00 10 1015.7
20181115210822 78 260 3.0 6.0 0.00 0.00 0.00 11 1015.7
20181115210326 77 184 1.0 6.0 0.00 0.00 0.00 11 1015.7
20181115205832 77 222 3.0 9.0 0.00 0.00 0.00 11 1015.9
20181115205337 77 216 3.0 10.0 0.00 0.00 0.00 11 1015.9
20181115204822 77 240 4.0 11.0 0.00 0.00 0.00 10 1015.9
20181115204327 77 225 7.0 11.0 0.00 0.00 0.00 11 1016.1
20181115203820 77 223 2.0 9.0 0.00 0.00 0.00 11 1016.1
20181115203329 76 227 4.0 10.0 0.00 0.00 0.00 11 1016.1
20181115202833 76 219 6.0 10.0 0.00 0.00 0.00 10 1016.5
20181115202339 76 264 4.0 10.0 0.00 0.00 0.00 11 1016.5
20181115201823 76 161 4.0 10.0 0.00 0.00 0.00 10 1016.5
20181115201327 76 288 2.0 8.0 0.00 0.00 0.00 11 1016.6
20181115200832 75 212 1.0 7.0 0.00 0.00 0.00 11 1016.6
20181115200335 75 221 4.0 7.0 0.00 0.00 0.00 11 1016.6
20181115195819 75 238 2.0 10.0 0.00 0.00 0.00 11 1016.8
20181115195328 74 185 6.0 10.0 0.00 0.00 0.00 11 1016.8
20181115194836 74 216 4.0 12.0 0.00 0.00 0.00 12 1016.8
20181115194320 73 222 5.0 12.0 0.00 0.00 0.00 11 1017.1
20181115193825 73 257 3.0 11.0 0.00 0.00 0.00 12 1017.1
20181115193333 73 208 3.0 9.0 0.00 0.00 0.00 12 1017.1
20181115192839 73 226 5.0 9.0 0.00 0.00 0.00 11 1017.3
20181115192325 73 241 4.0 7.0 0.00 0.00 0.00 12 1017.3
20181115191827 73 216 3.0 7.0 0.00 0.00 0.00 13 1017.3
20181115191331 73 261 3.0 4.0 0.00 0.00 0.00 13 1017.6
20181115190837 72 232 1.0 6.0 0.00 0.00 0.00 13 1017.6
20181115190338 71 156 4.0 6.0 0.00 0.00 0.00 13 1017.6
20181115185827 71 225 2.0 7.0 0.00 0.00 0.00 13 1017.7
20181115185325 71 223 2.0 7.0 0.00 0.00 0.00 14 1017.7
20181115184830 71 215 3.0 6.0 0.00 0.00 0.00 13 1017.7
20181115184336 71 249 2.0 4.0 0.00 0.00 0.00 13 1017.9
20181115183819 71 256 1.0 5.0 0.00 0.00 0.00 13 1017.9
20181115183329 71 221 2.0 5.0 0.00 0.00 0.00 12 1017.9
20181115182835 71 239 2.0 5.0 0.00 0.00 0.00 14 1018.2
20181115182321 70 248 1.0 5.0 0.00 0.00 0.00 14 1018.2
20181115181827 70 257 2.0 4.0 0.00 0.00 0.00 14 1018.2
20181115181330 70 202 2.0 3.0 0.00 0.00 0.00 13 1018.2
20181115180823 70 190 2.0 3.0 0.00 0.00 0.00 13 1018.2
20181115180327 70 246 2.0 3.0 0.00 0.00 0.00 14 1018.2
20181115175832 69 186 0.0 0.0 0.00 0.00 0.00 16 1018.5
20181115175336 68 266 0.0 1.0 0.00 0.00 0.00 17 1018.5
20181115174821 68 265 0.0 1.0 0.00 0.00 0.00 17 1018.5
20181115174326 67 281 0.0 1.0 0.00 0.00 0.00 19 1018.9
20181115173831 66 57 0.0 0.0 0.00 0.00 0.00 20 1018.9
20181115173334 66 311 0.0 0.0 0.00 0.00 0.00 20 1018.9
20181115172821 65 311 0.0 0.0 0.00 0.00 0.00 20 1019.1
20181115172325 65 308 0.0 0.0 0.00 0.00 0.00 21 1019.1
20181115171834 64 307 0.0 0.0 0.00 0.00 0.00 21 1019.1
20181115171321 64 307 0.0 0.0 0.00 0.00 0.00 22 1019.1
20181115170825 65 307 0.0 0.0 0.00 0.00 0.00 21 1019.1
20181115170331 64 37 0.0 0.0 0.00 0.00 0.00 21 1019.1
20181115165838 64 247 0.0 0.0 0.00 0.00 0.00 20 1019.3
20181115165321 64 236 0.0 0.0 0.00 0.00 0.00 22 1019.3
20181115164825 65 224 0.0 0.0 0.00 0.00 0.00 20 1019.3
20181115164329 64 159 0.0 0.0 0.00 0.00 0.00 19 1019.5
20181115163837 63 159 0.0 0.0 0.00 0.00 0.00 21 1019.5
20181115163321 62 169 0.0 0.0 0.00 0.00 0.00 23 1019.5
20181115162825 60 153 0.0 0.0 0.00 0.00 0.00 24 1019.0
20181115162335 59 163 0.0 0.0 0.00 0.00 0.00 26 1019.0
20181115161819 58 163 0.0 0.0 0.00 0.00 0.00 27 1019.0
20181115161324 56 163 0.0 0.0 0.00 0.00 0.00 28 1019.2
20181115160827 54 160 0.0 0.0 0.00 0.00 0.00 31 1019.2
20181115160332 53 160 0.0 0.0 0.00 0.00 0.00 33 1019.2
20181115155818 52 160 0.0 1.0 0.00 0.00 0.00 33 1019.4
20181115155327 51 80 0.0 1.0 0.00 0.00 0.00 34 1019.4
20181115154831 50 80 0.0 1.0 0.00 0.00 0.00 34 1019.4
20181115154339 48 80 0.0 1.0 0.00 0.00 0.00 36 1019.5
20181115153823 48 90 0.0 0.0 0.00 0.00 0.00 38 1019.5
20181115153331 47 90 0.0 0.0 0.00 0.00 0.00 37 1019.5
20181115152838 45 90 0.0 0.0 0.00 0.00 0.00 39 1019.7
20181115152324 45 90 0.0 0.0 0.00 0.00 0.00 39 1019.7
20181115151827 44 90 0.0 0.0 0.00 0.00 0.00 39 1019.7
20181115151332 43 88 0.0 0.0 0.00 0.00 0.00 41 1018.9
20181115150820 42 160 0.0 0.0 0.00 0.00 0.00 40 1018.9
20181115150327 42 160 0.0 0.0 0.00 0.00 0.00 40 1018.9
20181115145832 42 160 0.0 0.0 0.00 0.00 0.00 40 1019.4
20181115145335 42 160 0.0 0.0 0.00 0.00 0.00 38 1019.4
20181115144820 40 160 0.0 0.0 0.00 0.00 0.00 40 1019.4
20181115144328 41 157 0.0 0.0 0.00 0.00 0.00 41 1019.2
20181115143835 41 157 0.0 0.0 0.00 0.00 0.00 41 1019.2
20181115143320 40 157 0.0 0.0 0.00 0.00 0.00 39 1019.2
20181115142824 40 150 0.0 0.0 0.00 0.00 0.00 41 1018.4
20181115142330 40 150 0.0 0.0 0.00 0.00 0.00 41 1018.4
20181115141835 40 150 0.0 0.0 0.00 0.00 0.00 42 1018.4
20181115141322 39 150 0.0 0.0 0.00 0.00 0.00 43 1019.1
20181115140827 39 150 0.0 0.0 0.00 0.00 0.00 42 1019.1
20181115140332 40 150 0.0 0.0 0.00 0.00 0.00 40 1019.1
20181115135819 40 150 0.0 0.0 0.00 0.00 0.00 40 1018.4
20181115135330 40 150 0.0 0.0 0.00 0.00 0.00 39 1018.4
20181115134834 41 150 0.0 0.0 0.00 0.00 0.00 38 1018.4
20181115134338 41 150 0.0 0.0 0.00 0.00 0.00 38 1018.3
20181115133822 42 150 0.0 0.0 0.00 0.00 0.00 37 1018.3
20181115133326 42 150 0.0 0.0 0.00 0.00 0.00 36 1018.3
20181115132830 43 151 0.0 0.0 0.00 0.00 0.00 33 1018.3
20181115132337 42 134 0.0 0.0 0.00 0.00 0.00 33 1018.3
20181115131821 42 133 0.0 0.0 0.00 0.00 0.00 34 1018.3
20181115131329 42 133 0.0 0.0 0.00 0.00 0.00 35 1018.4
20181115130837 41 157 0.0 0.0 0.00 0.00 0.00 37 1018.4
20181115130326 40 157 0.0 0.0 0.00 0.00 0.00 39 1018.4
20181115125831 41 157 0.0 0.0 0.00 0.00 0.00 37 1017.9
20181115125335 41 150 0.0 1.0 0.00 0.00 0.00 38 1017.9
20181115124820 40 147 0.0 1.0 0.00 0.00 0.00 39 1017.9
20181115124325 40 145 0.0 0.0 0.00 0.00 0.00 41 1018.0
20181115123830 40 145 0.0 1.0 0.00 0.00 0.00 40 1018.0
20181115123337 40 145 0.0 1.0 0.00 0.00 0.00 40 1018.0
20181115122823 41 145 0.0 0.0 0.00 0.00 0.00 38 1018.0
20181115122327 42 145 0.0 0.0 0.00 0.00 0.00 38 1018.0
20181115121833 42 157 0.0 0.0 0.00 0.00 0.00 34 1018.0
20181115121321 41 157 0.0 0.0 0.00 0.00 0.00 35 1018.3
20181115120826 40 157 0.0 0.0 0.00 0.00 0.00 39 1018.3
20181115120332 40 157 0.0 0.0 0.00 0.00 0.00 39 1018.3
20181115115837 40 157 0.0 0.0 0.00 0.00 0.00 37 1019.0
20181115115322 41 157 0.0 0.0 0.00 0.00 0.00 37 1019.0
20181115114828 41 157 0.0 0.0 0.00 0.00 0.00 37 1019.0
20181115114333 42 157 0.0 0.0 0.00 0.00 0.00 36 1018.8
20181115113839 42 157 0.0 1.0 0.00 0.00 0.00 36 1018.8
20181115113323 42 157 0.0 2.0 0.00 0.00 0.00 35 1018.8
20181115112830 42 167 1.0 2.0 0.00 0.00 0.00 35 1018.9
20181115112321 42 190 0.0 0.0 0.00 0.00 0.00 34 1018.9
20181115111828 43 277 0.0 0.0 0.00 0.00 0.00 34 1018.9
20181115111318 43 127 0.0 0.0 0.00 0.00 0.00 34 1018.9
20181115110827 42 144 0.0 1.0 0.00 0.00 0.00 34 1018.9
20181115110333 42 154 0.0 1.0 0.00 0.00 0.00 34 1018.9
20181115105822 43 162 0.0 0.0 0.00 0.00 0.00 33 1018.7
20181115105328 43 162 0.0 0.0 0.00 0.00 0.00 33 1018.7
20181115104835 43 162 0.0 1.0 0.00 0.00 0.00 32 1018.7
20181115104321 43 162 0.0 2.0 0.00 0.00 0.00 31 1018.9
20181115103827 43 145 1.0 2.0 0.00 0.00 0.00 33 1018.9
20181115103320 43 155 0.0 0.0 0.00 0.00 0.00 34 1018.9
20181115102825 42 155 0.0 0.0 0.00 0.00 0.00 34 1019.3
20181115102330 41 157 0.0 0.0 0.00 0.00 0.00 36 1019.3
20181115101817 42 157 0.0 0.0 0.00 0.00 0.00 36 1019.3
20181115101325 42 157 0.0 0.0 0.00 0.00 0.00 36 1019.3
20181115100830 42 156 0.0 0.0 0.00 0.00 0.00 35 1019.3
20181115100335 42 156 0.0 0.0 0.00 0.00 0.00 36 1019.3
20181115095819 42 156 0.0 0.0 0.00 0.00 0.00 36 1019.4
20181115095324 42 156 0.0 0.0 0.00 0.00 0.00 36 1019.4
20181115094828 42 156 0.0 0.0 0.00 0.00 0.00 35 1019.4
20181115094321 42 156 0.0 0.0 0.00 0.00 0.00 35 1019.5
20181115093826 43 156 0.0 0.0 0.00 0.00 0.00 35 1019.5
20181115093330 43 156 0.0 0.0 0.00 0.00 0.00 34 1019.5
20181115092835 44 118 0.0 0.0 0.00 0.00 0.00 33 1019.4
20181115092322 44 118 0.0 0.0 0.00 0.00 0.00 32 1019.4
20181115091826 45 118 0.0 0.0 0.00 0.00 0.00 32 1019.4
20181115091331 45 119 0.0 2.0 0.00 0.00 0.00 31 1019.4
20181115090835 45 115 1.0 3.0 0.00 0.00 0.00 31 1019.4
20181115090320 44 111 1.0 3.0 0.00 0.00 0.00 32 1019.4
20181115085824 43 163 0.0 1.0 0.00 0.00 0.00 34 1019.5
20181115085333 43 160 0.0 1.0 0.00 0.00 0.00 34 1019.5
20181115084820 43 160 0.0 0.0 0.00 0.00 0.00 34 1019.5
20181115084326 43 160 0.0 0.0 0.00 0.00 0.00 34 1019.8
20181115083830 44 160 0.0 0.0 0.00 0.00 0.00 34 1019.8
20181115083333 44 160 0.0 2.0 0.00 0.00 0.00 33 1019.8
20181115082838 45 160 0.0 2.0 0.00 0.00 0.00 32 1019.8
20181115082322 45 151 1.0 1.0 0.00 0.00 0.00 32 1019.8
20181115081831 44 161 1.0 1.0 0.00 0.00 0.00 33 1019.8
20181115081335 44 155 0.0 1.0 0.00 0.00 0.00 33 1020.1
20181115080839 44 156 0.0 1.0 0.00 0.00 0.00 33 1020.1
20181115080327 45 129 0.0 1.0 0.00 0.00 0.00 32 1020.1
20181115075831 45 129 0.0 1.0 0.00 0.00 0.00 32 1020.2
20181115075334 45 129 0.0 1.0 0.00 0.00 0.00 32 1020.2
20181115074839 46 129 0.0 0.0 0.00 0.00 0.00 32 1020.2
20181115074323 46 129 0.0 0.0 0.00 0.00 0.00 30 1020.3
20181115073827 47 129 0.0 1.0 0.00 0.00 0.00 30 1020.3
20181115073331 47 129 0.0 2.0 0.00 0.00 0.00 29 1020.3
20181115072835 47 129 0.0 2.0 0.00 0.00 0.00 29 1020.5
20181115072320 46 129 0.0 1.0 0.00 0.00 0.00 30 1020.5
20181115071824 46 161 0.0 1.0 0.00 0.00 0.00 29 1020.5
20181115071332 47 161 0.0 1.0 0.00 0.00 0.00 28 1020.6
20181115070824 47 168 0.0 1.0 0.00 0.00 0.00 29 1020.6
20181115070332 47 137 0.0 0.0 0.00 0.00 0.00 28 1020.6
20181115065837 47 138 0.0 0.0 0.00 0.00 0.00 29 1020.9
20181115065320 47 137 0.0 0.0 0.00 0.00 0.00 28 1020.9
20181115064827 48 137 0.0 0.0 0.00 0.00 0.00 28 1020.9
20181115064332 48 137 0.0 2.0 0.00 0.00 0.00 28 1021.0
20181115063818 48 130 0.0 3.0 0.00 0.00 0.00 28 1021.0
20181115063325 48 131 0.0 3.0 0.00 0.00 0.00 29 1021.0
20181115062829 48 132 0.0 0.0 0.00 0.00 0.00 29 1021.1
20181115062335 48 128 0.0 0.0 0.00 0.00 0.00 28 1021.1
20181115061825 48 129 0.0 0.0 0.00 0.00 0.00 28 1021.1
20181115061330 48 129 0.0 2.0 0.00 0.00 0.00 29 1021.1
20181115060836 48 129 0.0 3.0 0.00 0.00 0.00 29 1021.1
20181115060323 48 121 0.0 3.0 0.00 0.00 0.00 29 1021.1
20181115055829 48 134 0.0 1.0 0.00 0.00 0.00 29 1021.3
20181115055335 49 136 0.0 2.0 0.00 0.00 0.00 28 1021.3
20181115054820 49 130 0.0 2.0 0.00 0.00 0.00 28 1021.3
20181115054328 49 133 2.0 2.0 0.00 0.00 0.00 28 1021.3
20181115053833 49 161 0.0 1.0 0.00 0.00 0.00 28 1021.3
20181115053324 49 141 0.0 0.0 0.00 0.00 0.00 28 1021.3